Location: French Creek State Gamelands
(40.1750°N, 75.7969°W)
Time: 07:33:55
(UTC-04:00)

ISS - All Passes

Search period start: 21 April 2018 00:00
Search period end: 01 May 2018 00:00
Orbit: 403 x 406 km, 51.6° (Epoch: 21 April)

Date Brightness Start Highest point End Pass type
(mag) Time Alt. Az. Time Alt. Az. Time Alt. Az.
21 Apr - 09:22:29 10° SSW 09:25:35 43° SE 09:28:43 10° ENE daylight
21 Apr - 10:59:23 10° W 11:02:10 25° NNW 11:04:59 10° NNE daylight
21 Apr - 12:38:17 10° NNW 12:39:33 12° N 12:40:49 10° NNE daylight
21 Apr - 14:15:07 10° NNW 14:17:07 15° NNE 14:19:06 10° NE daylight
21 Apr - 15:50:55 10° NW 15:54:09 56° NE 15:57:23 10° ESE daylight
21 Apr - 17:28:18 10° W 17:30:19 15° SW 17:32:19 10° SSW daylight
22 Apr - 08:30:53 10° S 08:33:29 22° SE 08:36:06 10° E daylight
22 Apr - 10:06:42 10° WSW 10:09:48 39° NNW 10:12:55 10° NE daylight
22 Apr - 11:45:17 10° NW 11:46:58 13° NNW 11:48:40 10° NNE daylight
22 Apr - 13:23:04 10° NNW 13:24:34 12° N 13:26:04 10° NE daylight
22 Apr - 14:58:49 10° NW 15:01:49 32° NNE 15:04:49 10° E daylight
22 Apr - 16:35:21 10° WNW 16:38:15 29° SW 16:41:08 10° SSE daylight
23 Apr - 07:40:16 10° SSE 07:41:27 11° SE 07:42:37 10° ESE daylight
23 Apr - 09:14:14 10° WSW 09:17:29 73° NW 09:20:46 10° NE daylight
23 Apr - 10:52:14 10° WNW 10:54:26 16° NNW 10:56:38 10° NNE daylight
23 Apr - 12:30:49 10° NNW 12:31:58 11° N 12:33:07 10° NNE daylight
23 Apr - 14:06:45 10° NNW 14:09:23 22° NNE 14:12:02 10° ENE daylight
23 Apr - 15:42:52 10° WNW 15:46:06 59° SW 15:49:19 10° SE daylight
24 Apr - 08:22:03 10° SW 08:25:15 56° SE 08:28:28 10° ENE daylight
24 Apr - 09:59:16 10° WNW 10:01:56 22° NNW 10:04:35 10° NNE daylight
24 Apr - 11:38:11 10° NNW 11:39:21 11° N 11:40:31 10° NNE daylight
24 Apr - 13:14:43 10° NNW 13:16:54 16° NNE 13:19:04 10° ENE daylight
24 Apr - 14:50:34 10° NW 14:53:50 70° NE 14:57:07 10° ESE daylight
24 Apr - 16:28:33 10° WSW 16:29:55 12° SW 16:31:16 10° SSW daylight
25 Apr - 07:30:14 10° SSW 07:33:05 28° SE 07:35:56 10° ENE daylight
25 Apr - 09:06:29 10° W 09:09:29 33° NNW 09:12:31 10° NE daylight
25 Apr - 10:45:13 10° NW 10:46:44 13° N 10:48:15 10° NNE daylight
25 Apr - 12:22:39 10° NNW 12:24:19 13° NNE 12:25:59 10° NE daylight
25 Apr - 13:58:23 10° NW 14:01:30 38° NNE 14:04:36 10° ESE daylight
25 Apr - 15:35:10 10° WNW 15:37:51 23° SW 15:40:30 10° S daylight
26 Apr - 06:39:05 10° SSE 06:40:58 15° SE 06:42:52 10° E daylight
26 Apr - 08:13:54 10° WSW 08:17:07 58° NW 08:20:21 10° NE daylight
26 Apr - 09:52:07 10° NW 09:54:08 15° NNW 09:56:09 10° NNE daylight
26 Apr - 11:30:27 10° NNW 11:31:42 12° N 11:32:56 10° NNE daylight
26 Apr - 13:06:18 10° NNW 13:09:04 25° NNE 13:11:51 10° E daylight
26 Apr - 14:42:31 10° WNW 14:45:40 45° SW 14:48:49 10° SSE daylight
27 Apr - 07:21:33 10° SW 07:24:48 73° SE 07:28:04 10° ENE daylight
27 Apr - 08:59:05 10° WNW 09:01:35 20° NNW 09:04:05 10° NNE daylight
27 Apr - 10:37:56 10° NNW 10:39:03 11° N 10:40:09 10° NNE daylight
27 Apr - 12:14:12 10° NNW 12:16:33 18° NNE 12:18:53 10° ENE daylight
27 Apr - 13:50:07 10° NW 13:53:24 88° NNE 13:56:41 10° SE daylight
28 Apr - 06:29:34 10° SSW 06:32:34 35° SE 06:35:36 10° ENE daylight
28 Apr - 08:06:10 10° W 08:09:04 28° NNW 08:11:59 10° NE daylight
28 Apr - 09:45:01 10° NNW 09:46:23 12° N 09:47:45 10° NNE daylight
28 Apr - 11:22:07 10° NNW 11:23:57 14° NNE 11:25:48 10° NE daylight
28 Apr - 12:57:52 10° NW 13:01:04 46° NNE 13:04:14 10° ESE daylight
28 Apr - 14:34:56 10° W 14:37:17 18° SW 14:39:39 10° S daylight
29 Apr - 05:38:04 10° S 05:40:24 18° SE 05:42:44 10° E visible
29 Apr - 07:13:28 10° WSW 07:16:38 47° NNW 07:19:48 10° NE daylight
29 Apr - 08:51:54 10° NW 08:53:44 14° NNW 08:55:34 10° NNE daylight
29 Apr - 10:29:56 10° NNW 10:31:18 12° N 10:32:40 10° NNE daylight
29 Apr - 12:05:43 10° NW 12:08:37 28° NNE 12:11:30 10° E daylight
29 Apr - 13:42:05 10° WNW 13:45:07 35° SW 13:48:09 10° SSE daylight
30 Apr - 06:21:00 10° SW 06:24:15 89° NW 06:27:32 10° NE daylight
30 Apr - 07:58:47 10° WNW 08:01:07 18° NNW 08:03:28 10° NNE daylight
30 Apr - 09:37:31 10° NNW 09:38:37 11° N 09:39:43 10° NNE daylight
30 Apr - 11:13:35 10° NNW 11:16:05 20° NNE 11:18:35 10° ENE daylight
30 Apr - 12:49:35 10° NW 12:52:51 73° SW 12:56:06 10° SE daylight
